Time,TemperatureF,DewpointF,PressureIn,WindDirection,WindDirectionDegrees,WindSpeedMPH,WindSpeedGustMPH,Humidity,HourlyPrecipIn,Conditions,Clouds,dailyrainin,SoftwareType,DateUTC
2013-02-27 00:01:00,33.5,31.3,29.52,South,180,0.0,0.0,92,0.00,,,0.00,WUHU216HW,2013-02-27 05:01:00,
2013-02-27 00:06:00,33.5,31.6,29.52,South,180,0.0,0.0,93,0.00,,,0.00,WUHU216HW,2013-02-27 05:06:00,
2013-02-27 00:11:00,33.5,31.6,29.51,South,180,0.0,0.0,93,0.00,,,0.00,WUHU216HW,2013-02-27 05:11:00,
2013-02-27 00:16:00,33.5,31.6,29.51,South,180,0.0,0.0,93,0.00,,,0.00,WUHU216HW,2013-02-27 05:16:00,
2013-02-27 00:21:00,33.5,31.3,29.51,South,180,0.0,0.0,92,0.00,,,0.00,WUHU216HW,2013-02-27 05:21:00,
2013-02-27 00:26:00,33.5,31.3,29.51,South,180,0.0,0.0,92,0.00,,,0.00,WUHU216HW,2013-02-27 05:26:00,
2013-02-27 00:31:00,33.5,31.3,29.51,South,180,0.0,0.0,92,0.00,,,0.00,WUHU216HW,2013-02-27 05:31:00,
2013-02-27 00:36:00,33.5,31.3,29.51,South,180,0.0,0.0,92,0.00,,,0.00,WUHU216HW,2013-02-27 05:36:00,
2013-02-27 00:41:00,33.5,31.6,29.50,South,180,0.0,0.0,93,0.00,,,0.00,WUHU216HW,2013-02-27 05:41:00,
2013-02-27 00:46:00,33.5,31.3,29.50,South,180,0.0,0.0,92,0.00,,,0.00,WUHU216HW,2013-02-27 05:46:00,
2013-02-27 00:51:00,33.5,31.6,29.50,South,180,0.0,0.0,93,0.00,,,0.00,WUHU216HW,2013-02-27 05:51:00,
2013-02-27 00:56:00,33.5,31.3,29.50,South,180,0.0,0.0,92,0.00,,,0.00,WUHU216HW,2013-02-27 05:56:00,
2013-02-27 01:01:00,33.5,31.3,29.50,South,180,0.0,0.0,92,0.00,,,0.00,WUHU216HW,2013-02-27 06:01:00,
2013-02-27 01:06:00,33.5,31.3,29.50,South,180,0.0,0.0,92,0.00,,,0.00,WUHU216HW,2013-02-27 06:06:00,
2013-02-27 01:11:00,33.5,31.3,29.50,South,180,0.0,0.0,92,0.00,,,0.00,WUHU216HW,2013-02-27 06:11:00,
2013-02-27 01:16:00,33.5,31.3,29.50,South,180,0.7,1.1,92,0.00,,,0.00,WUHU216HW,2013-02-27 06:16:00,
2013-02-27 01:21:00,33.5,31.3,29.50,South,180,0.7,2.0,92,0.00,,,0.00,WUHU216HW,2013-02-27 06:21:00,
2013-02-27 01:26:00,33.5,31.3,29.50,South,180,0.4,2.0,92,0.00,,,0.00,WUHU216HW,2013-02-27 06:26:00,
2013-02-27 01:31:00,33.5,31.6,29.49,South,180,1.1,1.8,93,0.00,,,0.00,WUHU216HW,2013-02-27 06:31:00,
2013-02-27 01:36:00,33.5,31.6,29.50,South,180,0.0,1.6,93,0.00,,,0.00,WUHU216HW,2013-02-27 06:36:00,
2013-02-27 01:41:00,33.5,31.3,29.49,South,180,0.7,1.6,92,0.00,,,0.00,WUHU216HW,2013-02-27 06:41:00,
2013-02-27 01:46:00,33.5,31.3,29.49,South,180,0.4,1.6,92,0.00,,,0.00,WUHU216HW,2013-02-27 06:46:00,
2013-02-27 01:51:00,33.5,31.6,29.49,South,180,0.9,2.0,93,0.00,,,0.00,WUHU216HW,2013-02-27 06:51:00,
2013-02-27 01:56:00,33.5,31.6,29.49,South,180,1.8,2.0,93,0.00,,,0.00,WUHU216HW,2013-02-27 06:56:00,
2013-02-27 02:01:00,33.5,31.6,29.49,South,180,0.0,2.0,93,0.00,,,0.00,WUHU216HW,2013-02-27 07:01:00,
2013-02-27 02:06:00,33.5,31.3,29.49,South,180,0.9,2.0,92,0.00,,,0.00,WUHU216HW,2013-02-27 07:06:00,
2013-02-27 02:11:00,33.5,31.6,29.49,South,180,0.0,1.6,93,0.00,,,0.00,WUHU216HW,2013-02-27 07:11:00,
2013-02-27 02:16:00,33.5,31.3,29.49,South,180,0.4,3.1,92,0.00,,,0.00,WUHU216HW,2013-02-27 07:16:00,
2013-02-27 02:21:00,33.5,31.3,29.49,South,180,1.8,3.1,92,0.00,,,0.00,WUHU216HW,2013-02-27 07:21:00,
2013-02-27 02:26:00,33.5,31.3,29.49,South,180,1.1,2.0,92,0.00,,,0.00,WUHU216HW,2013-02-27 07:26:00,
2013-02-27 02:31:00,33.5,31.6,29.49,South,180,0.7,2.0,93,0.00,,,0.00,WUHU216HW,2013-02-27 07:31:00,
2013-02-27 02:36:00,33.5,31.3,29.49,South,180,0.4,2.7,92,0.00,,,0.00,WUHU216HW,2013-02-27 07:36:00,
2013-02-27 02:41:00,33.5,31.3,29.49,South,180,1.1,2.7,92,0.00,,,0.00,WUHU216HW,2013-02-27 07:41:00,
2013-02-27 02:46:00,33.5,31.3,29.49,South,180,0.0,2.0,92,0.00,,,0.00,WUHU216HW,2013-02-27 07:46:00,
2013-02-27 02:51:00,33.5,31.3,29.48,South,180,0.0,1.1,92,0.00,,,0.00,WUHU216HW,2013-02-27 07:51:00,
2013-02-27 02:56:00,33.5,31.3,29.48,South,180,0.0,0.0,92,0.00,,,0.00,WUHU216HW,2013-02-27 07:56:00,
2013-02-27 03:01:00,33.5,31.3,29.48,South,180,0.0,0.0,92,0.00,,,0.00,WUHU216HW,2013-02-27 08:01:00,
2013-02-27 03:06:00,33.5,31.3,29.48,South,180,0.0,0.0,92,0.00,,,0.00,WUHU216HW,2013-02-27 08:06:00,
2013-02-27 03:11:00,33.5,31.3,29.47,South,180,0.0,0.0,92,0.00,,,0.00,WUHU216HW,2013-02-27 08:11:00,
2013-02-27 03:16:00,33.5,31.6,29.47,South,180,0.0,0.0,93,0.00,,,0.00,WUHU216HW,2013-02-27 08:16:00,
2013-02-27 03:21:00,33.5,31.3,29.47,South,180,0.0,0.0,92,0.00,,,0.00,WUHU216HW,2013-02-27 08:21:00,
2013-02-27 03:26:00,33.5,31.6,29.47,South,180,0.0,0.0,93,0.00,,,0.00,WUHU216HW,2013-02-27 08:26:00,
2013-02-27 03:31:00,33.5,31.3,29.46,South,180,0.0,0.0,92,0.00,,,0.00,WUHU216HW,2013-02-27 08:31:00,
2013-02-27 03:36:00,33.5,31.6,29.46,SSE,158,0.0,0.0,93,0.00,,,0.00,WUHU216HW,2013-02-27 08:36:00,
2013-02-27 03:41:00,33.5,31.3,29.46,SSE,158,0.0,0.2,92,0.00,,,0.00,WUHU216HW,2013-02-27 08:41:00,
2013-02-27 03:46:00,33.5,31.3,29.46,SSE,158,0.2,0.2,92,0.00,,,0.00,WUHU216HW,2013-02-27 08:46:00,
2013-02-27 03:51:00,33.5,31.3,29.46,SSE,158,0.0,0.7,92,0.00,,,0.00,WUHU216HW,2013-02-27 08:51:00,
2013-02-27 03:56:00,33.5,31.3,29.46,SSE,158,0.2,0.9,92,0.00,,,0.00,WUHU216HW,2013-02-27 08:56:00,
2013-02-27 04:01:00,33.5,31.6,29.46,SSE,158,0.2,0.9,93,0.00,,,0.00,WUHU216HW,2013-02-27 09:01:00,
2013-02-27 04:06:00,33.5,31.3,29.46,SSE,158,0.2,0.9,92,0.00,,,0.00,WUHU216HW,2013-02-27 09:06:00,
2013-02-27 04:11:00,33.5,31.3,29.46,SSE,158,0.0,0.4,92,0.00,,,0.00,WUHU216HW,2013-02-27 09:11:00,
2013-02-27 04:16:00,33.5,31.6,29.46,SSE,158,0.4,0.4,93,0.00,,,0.00,WUHU216HW,2013-02-27 09:16:00,
2013-02-27 04:21:00,33.5,31.6,29.46,SSE,158,0.0,0.4,93,0.00,,,0.00,WUHU216HW,2013-02-27 09:21:00,
2013-02-27 04:26:00,33.5,31.3,29.46,SSE,158,0.0,0.7,92,0.00,,,0.00,WUHU216HW,2013-02-27 09:26:00,
2013-02-27 04:31:00,33.5,31.3,29.46,SSE,158,0.0,0.7,92,0.00,,,0.00,WUHU216HW,2013-02-27 09:31:00,
2013-02-27 04:36:00,33.5,31.3,29.46,SSE,158,0.0,0.4,92,0.00,,,0.00,WUHU216HW,2013-02-27 09:36:00,
2013-02-27 04:41:00,33.5,31.3,29.46,SSE,158,0.0,0.4,92,0.00,,,0.00,WUHU216HW,2013-02-27 09:41:00,
2013-02-27 04:46:00,33.5,31.3,29.46,SSE,158,0.0,0.4,92,0.00,,,0.00,WUHU216HW,2013-02-27 09:46:00,
2013-02-27 04:51:00,33.5,31.3,29.47,SSE,158,0.0,0.7,92,0.00,,,0.00,WUHU216HW,2013-02-27 09:51:00,
2013-02-27 04:56:00,33.5,31.6,29.46,SSE,158,0.2,1.6,93,0.00,,,0.00,WUHU216HW,2013-02-27 09:56:00,
2013-02-27 05:01:00,33.5,31.3,29.46,SSE,158,0.0,1.6,92,0.00,,,0.00,WUHU216HW,2013-02-27 10:01:00,
2013-02-27 05:06:00,33.5,31.3,29.46,SSE,158,0.2,0.7,92,0.00,,,0.00,WUHU216HW,2013-02-27 10:06:00,
2013-02-27 05:12:00,33.5,31.3,29.46,SSE,158,0.0,0.4,92,0.00,,,0.00,WUHU216HW,2013-02-27 10:12:00,
2013-02-27 05:17:00,33.5,31.3,29.46,SSE,158,0.0,0.4,92,0.00,,,0.00,WUHU216HW,2013-02-27 10:17:00,
2013-02-27 05:22:00,33.5,31.3,29.46,SSE,158,0.0,0.4,92,0.00,,,0.00,WUHU216HW,2013-02-27 10:22:00,
2013-02-27 05:27:00,33.5,31.3,29.46,SSE,158,0.4,0.4,92,0.00,,,0.00,WUHU216HW,2013-02-27 10:27:00,
2013-02-27 05:32:00,33.5,31.3,29.46,SSE,158,0.0,0.4,92,0.00,,,0.00,WUHU216HW,2013-02-27 10:32:00,
2013-02-27 05:37:00,33.5,31.3,29.46,SSE,158,0.0,0.4,92,0.00,,,0.00,WUHU216HW,2013-02-27 10:37:00,
2013-02-27 05:42:00,33.5,31.3,29.46,SSE,158,0.0,0.4,92,0.00,,,0.00,WUHU216HW,2013-02-27 10:42:00,
2013-02-27 05:47:00,33.5,31.3,29.46,SSE,158,0.2,0.4,92,0.00,,,0.00,WUHU216HW,2013-02-27 10:47:00,
2013-02-27 05:52:00,33.5,31.3,29.47,SSE,158,0.0,0.4,92,0.00,,,0.00,WUHU216HW,2013-02-27 10:52:00,
2013-02-27 05:57:00,33.5,31.3,29.46,SSE,158,0.0,0.0,92,0.00,,,0.00,WUHU216HW,2013-02-27 10:57:00,
2013-02-27 06:02:00,33.5,31.3,29.47,SSE,158,0.0,0.0,92,0.00,,,0.00,WUHU216HW,2013-02-27 11:02:00,
2013-02-27 06:07:00,33.5,31.3,29.47,SSE,158,0.0,0.4,92,0.00,,,0.00,WUHU216HW,2013-02-27 11:07:00,
2013-02-27 06:12:00,33.5,31.3,29.47,SSE,158,0.0,0.4,92,0.00,,,0.00,WUHU216HW,2013-02-27 11:12:00,
2013-02-27 06:17:00,33.5,31.3,29.47,SSE,158,0.0,0.0,92,0.00,,,0.00,WUHU216HW,2013-02-27 11:17:00,
2013-02-27 06:22:00,33.5,31.3,29.47,SSE,158,0.0,0.0,92,0.00,,,0.00,WUHU216HW,2013-02-27 11:22:00,
2013-02-27 06:27:00,33.5,31.3,29.47,SSE,158,0.0,0.0,92,0.00,,,0.00,WUHU216HW,2013-02-27 11:27:00,
2013-02-27 06:32:00,33.5,31.3,29.47,SSE,158,0.0,0.0,92,0.00,,,0.00,WUHU216HW,2013-02-27 11:32:00,
2013-02-27 06:37:00,33.5,31.3,29.47,SSE,158,0.0,0.0,92,0.00,,,0.00,WUHU216HW,2013-02-27 11:37:00,
2013-02-27 06:42:00,33.5,31.3,29.48,SSE,158,0.0,0.0,92,0.00,,,0.00,WUHU216HW,2013-02-27 11:42:00,
2013-02-27 06:47:00,33.5,31.3,29.47,SSE,158,0.0,0.0,92,0.00,,,0.00,WUHU216HW,2013-02-27 11:47:00,
2013-02-27 06:52:00,33.5,31.3,29.48,SSE,158,0.0,0.0,92,0.00,,,0.00,WUHU216HW,2013-02-27 11:52:00,
2013-02-27 06:57:00,33.5,31.3,29.48,SSE,158,0.0,0.0,92,0.00,,,0.00,WUHU216HW,2013-02-27 11:57:00,
2013-02-27 07:02:00,33.5,31.3,29.48,SSE,158,0.0,0.0,92,0.00,,,0.00,WUHU216HW,2013-02-27 12:02:00,
2013-02-27 07:07:00,33.5,31.3,29.48,SSE,158,0.0,0.0,92,0.00,,,0.00,WUHU216HW,2013-02-27 12:07:00,
2013-02-27 07:12:00,33.5,31.3,29.48,SSE,158,0.0,0.0,92,0.00,,,0.00,WUHU216HW,2013-02-27 12:12:00,
2013-02-27 07:17:00,33.5,31.3,29.48,SSE,158,0.0,0.0,92,0.00,,,0.00,WUHU216HW,2013-02-27 12:17:00,
2013-02-27 07:22:00,33.5,31.3,29.48,SSE,158,0.0,0.0,92,0.00,,,0.00,WUHU216HW,2013-02-27 12:22:00,
2013-02-27 07:27:00,33.5,31.3,29.48,SSE,158,0.0,0.0,92,0.00,,,0.00,WUHU216HW,2013-02-27 12:27:00,
2013-02-27 07:32:00,33.5,31.3,29.48,SSE,158,0.0,0.0,92,0.00,,,0.00,WUHU216HW,2013-02-27 12:32:00,
2013-02-27 07:37:00,33.5,31.3,29.49,SSE,158,0.0,0.0,92,0.00,,,0.00,WUHU216HW,2013-02-27 12:37:00,
2013-02-27 07:42:00,33.5,31.3,29.49,SSE,158,0.0,0.0,92,0.01,,,0.01,WUHU216HW,2013-02-27 12:42:00,
2013-02-27 07:47:00,33.7,31.5,29.49,SSE,158,0.0,0.0,92,0.01,,,0.01,WUHU216HW,2013-02-27 12:47:00,
2013-02-27 07:52:00,33.7,31.5,29.49,SSE,158,0.0,0.0,92,0.01,,,0.01,WUHU216HW,2013-02-27 12:52:00,
2013-02-27 07:57:00,33.7,31.8,29.49,SSE,158,0.0,0.0,93,0.01,,,0.01,WUHU216HW,2013-02-27 12:57:00,
2013-02-27 08:02:00,33.8,31.7,29.49,SSE,158,0.0,0.0,92,0.01,,,0.01,WUHU216HW,2013-02-27 13:02:00,
2013-02-27 08:07:00,33.8,32.0,29.49,SSE,158,0.0,0.0,93,0.01,,,0.01,WUHU216HW,2013-02-27 13:07:00,
2013-02-27 08:12:00,33.8,31.7,29.50,SSE,158,0.0,0.0,92,0.01,,,0.01,WUHU216HW,2013-02-27 13:12:00,
2013-02-27 08:17:00,34.0,31.9,29.50,SSE,158,0.0,0.0,92,0.01,,,0.01,WUHU216HW,2013-02-27 13:17:00,
2013-02-27 08:22:00,34.2,32.0,29.50,SSE,158,0.0,0.0,92,0.01,,,0.01,WUHU216HW,2013-02-27 13:22:00,
2013-02-27 08:27:00,34.0,31.9,29.51,SSE,158,0.0,0.0,92,0.01,,,0.01,WUHU216HW,2013-02-27 13:27:00,
2013-02-27 08:32:00,34.2,32.0,29.51,SSE,158,0.0,0.0,92,0.01,,,0.01,WUHU216HW,2013-02-27 13:32:00,
2013-02-27 08:37:00,34.2,32.0,29.51,SSE,158,0.0,0.0,92,0.00,,,0.01,WUHU216HW,2013-02-27 13:37:00,
2013-02-27 08:42:00,34.2,32.0,29.51,SSE,158,0.0,0.0,92,0.00,,,0.01,WUHU216HW,2013-02-27 13:42:00,
2013-02-27 08:47:00,34.2,32.0,29.51,SSE,158,0.0,0.0,92,0.00,,,0.01,WUHU216HW,2013-02-27 13:47:00,
2013-02-27 08:52:00,34.2,32.0,29.52,SSE,158,0.0,0.0,92,0.00,,,0.01,WUHU216HW,2013-02-27 13:52:00,
2013-02-27 08:57:00,34.2,32.0,29.52,SSE,158,0.0,0.0,92,0.00,,,0.01,WUHU216HW,2013-02-27 13:57:00,
2013-02-27 09:02:00,34.2,32.0,29.52,SSE,158,0.0,0.4,92,0.00,,,0.01,WUHU216HW,2013-02-27 14:02:00,
2013-02-27 09:07:00,34.4,32.5,29.52,SSE,158,0.4,0.4,93,0.00,,,0.01,WUHU216HW,2013-02-27 14:07:00,
2013-02-27 09:12:00,34.4,32.5,29.52,SSE,158,0.0,1.1,93,0.00,,,0.01,WUHU216HW,2013-02-27 14:12:00,
2013-02-27 09:17:00,34.4,32.5,29.52,South,180,0.7,1.1,93,0.00,,,0.01,WUHU216HW,2013-02-27 14:17:00,
2013-02-27 09:22:00,34.6,32.7,29.52,SSE,158,0.0,2.0,93,0.00,,,0.01,WUHU216HW,2013-02-27 14:22:00,
2013-02-27 09:27:00,34.7,32.9,29.52,South,180,0.0,2.0,93,0.00,,,0.01,WUHU216HW,2013-02-27 14:27:00,
2013-02-27 09:32:00,34.7,32.9,29.52,SSE,158,0.0,1.3,93,0.00,,,0.01,WUHU216HW,2013-02-27 14:32:00,
2013-02-27 09:37:00,34.9,33.0,29.52,South,180,0.0,1.6,93,0.00,,,0.01,WUHU216HW,2013-02-27 14:37:00,
2013-02-27 09:42:00,34.9,33.0,29.52,South,180,0.0,1.6,93,0.00,,,0.01,WUHU216HW,2013-02-27 14:42:00,
2013-02-27 09:47:00,34.9,33.0,29.52,South,180,0.0,1.1,93,0.00,,,0.01,WUHU216HW,2013-02-27 14:47:00,
2013-02-27 09:52:00,35.1,32.9,29.52,South,180,0.4,1.1,92,0.00,,,0.01,WUHU216HW,2013-02-27 14:52:00,
2013-02-27 09:57:00,35.3,33.1,29.52,South,180,0.0,0.7,92,0.00,,,0.01,WUHU216HW,2013-02-27 14:57:00,
2013-02-27 10:02:00,35.5,33.3,29.52,South,180,0.4,1.1,92,0.00,,,0.01,WUHU216HW,2013-02-27 15:02:00,
2013-02-27 10:07:00,35.5,33.3,29.52,South,180,0.4,1.1,92,0.00,,,0.01,WUHU216HW,2013-02-27 15:07:00,
2013-02-27 10:12:00,35.5,33.3,29.52,South,180,0.0,1.8,92,0.00,,,0.01,WUHU216HW,2013-02-27 15:12:00,
2013-02-27 10:17:00,35.5,33.3,29.52,South,180,1.8,2.5,92,0.00,,,0.01,WUHU216HW,2013-02-27 15:17:00,
2013-02-27 10:22:00,35.5,33.3,29.52,South,180,0.9,2.5,92,0.00,,,0.01,WUHU216HW,2013-02-27 15:22:00,
2013-02-27 10:27:00,35.6,33.5,29.52,South,180,1.3,2.0,92,0.00,,,0.01,WUHU216HW,2013-02-27 15:27:00,
2013-02-27 10:32:00,35.6,33.5,29.52,South,180,1.8,1.8,92,0.00,,,0.01,WUHU216HW,2013-02-27 15:32:00,
2013-02-27 10:37:00,35.8,33.7,29.52,South,180,0.9,2.2,92,0.00,,,0.01,WUHU216HW,2013-02-27 15:37:00,
2013-02-27 10:42:00,36.0,33.8,29.52,South,180,1.1,2.2,92,0.01,,,0.02,WUHU216HW,2013-02-27 15:42:00,
2013-02-27 10:47:00,36.0,33.8,29.52,South,180,0.4,2.2,92,0.01,,,0.02,WUHU216HW,2013-02-27 15:47:00,
2013-02-27 10:52:00,36.0,33.8,29.53,South,180,0.9,2.9,92,0.01,,,0.02,WUHU216HW,2013-02-27 15:52:00,
2013-02-27 10:57:00,36.0,33.8,29.53,South,180,0.7,2.9,92,0.01,,,0.02,WUHU216HW,2013-02-27 15:57:00,
2013-02-27 11:02:00,36.0,33.8,29.53,South,180,0.7,1.8,92,0.01,,,0.02,WUHU216HW,2013-02-27 16:02:00,
2013-02-27 11:07:00,36.0,33.6,29.53,South,180,0.0,2.9,91,0.01,,,0.02,WUHU216HW,2013-02-27 16:07:00,
2013-02-27 11:12:00,36.0,33.6,29.53,South,180,0.0,2.9,91,0.01,,,0.02,WUHU216HW,2013-02-27 16:12:00,
2013-02-27 11:17:00,36.0,33.6,29.53,South,180,0.7,2.5,91,0.01,,,0.02,WUHU216HW,2013-02-27 16:17:00,
2013-02-27 11:22:00,35.8,33.4,29.53,South,180,1.3,3.4,91,0.01,,,0.02,WUHU216HW,2013-02-27 16:22:00,
2013-02-27 11:27:00,35.8,33.4,29.53,South,180,0.0,3.4,91,0.01,,,0.02,WUHU216HW,2013-02-27 16:27:00,
2013-02-27 11:32:00,35.8,33.4,29.53,SSE,158,0.9,3.8,91,0.01,,,0.02,WUHU216HW,2013-02-27 16:32:00,
2013-02-27 11:37:00,36.0,33.6,29.53,West,270,0.0,3.8,91,0.00,,,0.02,WUHU216HW,2013-02-27 16:37:00,
2013-02-27 11:42:00,36.0,33.6,29.53,West,270,0.4,2.0,91,0.01,,,0.03,WUHU216HW,2013-02-27 16:42:00,
2013-02-27 11:47:00,36.2,33.8,29.53,SSW,203,1.1,2.5,91,0.01,,,0.03,WUHU216HW,2013-02-27 16:47:00,
2013-02-27 11:52:00,36.2,33.8,29.53,North,0,0.4,2.5,91,0.01,,,0.03,WUHU216HW,2013-02-27 16:52:00,
2013-02-27 11:57:00,36.0,33.6,29.53,SSW,203,1.1,2.5,91,0.01,,,0.03,WUHU216HW,2013-02-27 16:57:00,
2013-02-27 12:02:00,36.0,33.6,29.54,SE,135,0.0,2.5,91,0.01,,,0.03,WUHU216HW,2013-02-27 17:02:00,
2013-02-27 12:07:00,36.0,33.6,29.54,SSW,203,2.0,2.5,91,0.01,,,0.03,WUHU216HW,2013-02-27 17:07:00,
2013-02-27 12:13:00,36.2,33.5,29.54,SSW,203,0.0,2.0,90,0.01,,,0.03,WUHU216HW,2013-02-27 17:13:00,
2013-02-27 12:18:00,36.2,33.5,29.54,South,180,1.1,2.0,90,0.01,,,0.03,WUHU216HW,2013-02-27 17:18:00,
2013-02-27 12:23:00,36.2,33.5,29.54,SE,135,0.9,2.7,90,0.02,,,0.05,WUHU216HW,2013-02-27 17:23:00,
2013-02-27 12:28:00,36.4,33.7,29.54,WNW,293,0.0,2.7,90,0.02,,,0.05,WUHU216HW,2013-02-27 17:28:00,
2013-02-27 12:33:00,36.4,33.7,29.54,WSW,248,1.1,1.6,90,0.02,,,0.05,WUHU216HW,2013-02-27 17:33:00,
2013-02-27 12:38:00,36.4,33.7,29.54,SSE,158,0.2,2.5,90,0.02,,,0.05,WUHU216HW,2013-02-27 17:38:00,
2013-02-27 12:43:00,36.4,33.7,29.54,ESE,113,0.9,2.5,90,0.01,,,0.05,WUHU216HW,2013-02-27 17:43:00,
2013-02-27 12:48:00,36.4,33.7,29.54,SSE,158,0.9,2.5,90,0.02,,,0.05,WUHU216HW,2013-02-27 17:48:00,
2013-02-27 12:53:00,36.4,33.7,29.54,SSW,203,0.7,2.0,90,0.02,,,0.05,WUHU216HW,2013-02-27 17:53:00,
2013-02-27 12:58:00,36.4,33.7,29.54,SSW,203,0.7,2.5,90,0.02,,,0.05,WUHU216HW,2013-02-27 17:58:00,
2013-02-27 13:03:00,36.2,33.5,29.54,South,180,1.3,4.3,90,0.02,,,0.05,WUHU216HW,2013-02-27 18:03:00,
2013-02-27 13:08:00,36.0,33.3,29.53,SE,135,0.2,4.3,90,0.03,,,0.07,WUHU216HW,2013-02-27 18:08:00,
2013-02-27 13:13:00,36.2,33.5,29.53,SSW,203,0.4,2.5,90,0.03,,,0.07,WUHU216HW,2013-02-27 18:13:00,
2013-02-27 13:18:00,36.4,33.7,29.53,SW,225,0.0,2.2,90,0.02,,,0.07,WUHU216HW,2013-02-27 18:18:00,
2013-02-27 13:23:00,36.4,33.7,29.53,SE,135,1.1,1.6,90,0.02,,,0.07,WUHU216HW,2013-02-27 18:23:00,
2013-02-27 13:28:00,36.4,33.7,29.53,SW,225,0.0,1.3,90,0.02,,,0.07,WUHU216HW,2013-02-27 18:28:00,
2013-02-27 13:33:00,36.4,33.4,29.53,SW,225,0.9,1.3,89,0.02,,,0.07,WUHU216HW,2013-02-27 18:33:00,
2013-02-27 13:38:00,36.4,33.4,29.53,WNW,293,0.0,1.8,89,0.02,,,0.07,WUHU216HW,2013-02-27 18:38:00,
2013-02-27 13:43:00,36.5,33.6,29.53,North,0,1.1,1.8,89,0.02,,,0.07,WUHU216HW,2013-02-27 18:43:00,
2013-02-27 13:48:00,36.4,33.4,29.53,SE,135,2.5,2.5,89,0.02,,,0.07,WUHU216HW,2013-02-27 18:48:00,
2013-02-27 13:53:00,36.4,33.4,29.53,ESE,113,0.4,2.5,89,0.02,,,0.07,WUHU216HW,2013-02-27 18:53:00,
2013-02-27 13:58:00,36.4,33.4,29.53,SE,135,0.4,2.5,89,0.02,,,0.07,WUHU216HW,2013-02-27 18:58:00,
2013-02-27 14:03:00,36.4,33.4,29.53,NW,315,0.4,1.3,89,0.02,,,0.07,WUHU216HW,2013-02-27 19:03:00,
2013-02-27 14:08:00,36.5,33.6,29.53,SE,135,0.4,1.6,89,0.02,,,0.09,WUHU216HW,2013-02-27 19:08:00,
2013-02-27 14:13:00,36.4,33.4,29.53,ESE,113,1.8,4.3,89,0.02,,,0.09,WUHU216HW,2013-02-27 19:13:00,
2013-02-27 14:18:00,36.4,33.4,29.53,SE,135,1.1,4.3,89,0.02,,,0.09,WUHU216HW,2013-02-27 19:18:00,
2013-02-27 14:23:00,36.5,33.6,29.53,North,0,0.0,2.2,89,0.02,,,0.09,WUHU216HW,2013-02-27 19:23:00,
2013-02-27 14:28:00,36.5,33.6,29.53,South,180,0.2,1.6,89,0.02,,,0.09,WUHU216HW,2013-02-27 19:28:00,
2013-02-27 14:33:00,36.4,33.4,29.53,NE,45,1.3,2.7,89,0.03,,,0.09,WUHU216HW,2013-02-27 19:33:00,
2013-02-27 14:38:00,36.4,33.4,29.53,SSE,158,1.1,2.7,89,0.02,,,0.09,WUHU216HW,2013-02-27 19:38:00,
2013-02-27 14:43:00,36.4,33.4,29.53,East,90,0.4,1.6,89,0.02,,,0.09,WUHU216HW,2013-02-27 19:43:00,
2013-02-27 14:48:00,36.5,33.6,29.53,South,180,0.2,2.0,89,0.02,,,0.09,WUHU216HW,2013-02-27 19:48:00,
2013-02-27 14:53:00,36.7,33.8,29.53,WSW,248,0.4,2.0,89,0.02,,,0.09,WUHU216HW,2013-02-27 19:53:00,
2013-02-27 14:58:00,36.5,33.6,29.53,South,180,0.2,1.3,89,0.03,,,0.11,WUHU216HW,2013-02-27 19:58:00,
2013-02-27 15:03:00,36.5,33.6,29.54,SE,135,0.0,1.6,89,0.03,,,0.11,WUHU216HW,2013-02-27 20:03:00,
2013-02-27 15:08:00,36.5,33.6,29.54,ESE,113,0.9,2.2,89,0.02,,,0.11,WUHU216HW,2013-02-27 20:08:00,
2013-02-27 15:13:00,36.4,33.4,29.54,SE,135,1.8,2.2,89,0.02,,,0.11,WUHU216HW,2013-02-27 20:13:00,
2013-02-27 15:18:00,36.2,33.2,29.54,South,180,0.4,2.0,89,0.02,,,0.11,WUHU216HW,2013-02-27 20:18:00,
2013-02-27 15:23:00,36.2,33.2,29.54,SE,135,1.1,2.0,89,0.03,,,0.12,WUHU216HW,2013-02-27 20:23:00,
2013-02-27 15:28:00,36.2,33.2,29.55,SSW,203,0.0,1.8,89,0.02,,,0.12,WUHU216HW,2013-02-27 20:28:00,
2013-02-27 15:33:00,36.0,33.0,29.55,SSW,203,0.2,4.0,89,0.02,,,0.12,WUHU216HW,2013-02-27 20:33:00,
2013-02-27 15:38:00,36.0,33.0,29.55,SSW,203,0.7,4.0,89,0.02,,,0.12,WUHU216HW,2013-02-27 20:38:00,
2013-02-27 15:43:00,36.0,33.0,29.55,SSW,203,1.8,1.8,89,0.02,,,0.12,WUHU216HW,2013-02-27 20:43:00,
2013-02-27 15:48:00,35.8,32.9,29.54,SW,225,0.4,1.8,89,0.03,,,0.12,WUHU216HW,2013-02-27 20:48:00,
2013-02-27 15:53:00,35.6,32.7,29.54,SSW,203,0.9,1.8,89,0.02,,,0.12,WUHU216HW,2013-02-27 20:53:00,
2013-02-27 15:58:00,35.6,32.7,29.55,SSW,203,0.4,1.8,89,0.02,,,0.12,WUHU216HW,2013-02-27 20:58:00,
2013-02-27 16:03:00,35.6,32.7,29.55,SSW,203,1.1,1.6,89,0.03,,,0.14,WUHU216HW,2013-02-27 21:03:00,
2013-02-27 16:08:00,35.6,32.7,29.55,SE,135,0.0,1.6,89,0.03,,,0.14,WUHU216HW,2013-02-27 21:08:00,
2013-02-27 16:13:00,35.6,32.7,29.55,South,180,0.0,1.1,89,0.03,,,0.14,WUHU216HW,2013-02-27 21:13:00,
2013-02-27 16:18:00,35.6,32.7,29.55,SSE,158,0.4,1.1,89,0.03,,,0.14,WUHU216HW,2013-02-27 21:18:00,
2013-02-27 16:23:00,35.6,32.7,29.55,SSW,203,0.9,0.9,89,0.03,,,0.14,WUHU216HW,2013-02-27 21:23:00,
2013-02-27 16:28:00,35.5,32.5,29.55,SE,135,0.4,4.5,89,0.03,,,0.14,WUHU216HW,2013-02-27 21:28:00,
2013-02-27 16:33:00,35.5,32.5,29.55,SSW,203,0.4,4.5,89,0.04,,,0.16,WUHU216HW,2013-02-27 21:33:00,
2013-02-27 16:38:00,35.6,32.7,29.55,South,180,0.0,1.1,89,0.04,,,0.16,WUHU216HW,2013-02-27 21:38:00,
2013-02-27 16:43:00,35.6,32.7,29.55,South,180,0.4,1.1,89,0.03,,,0.16,WUHU216HW,2013-02-27 21:43:00,
2013-02-27 16:48:00,35.5,32.5,29.55,SSE,158,0.9,1.8,89,0.04,,,0.17,WUHU216HW,2013-02-27 21:48:00,
2013-02-27 16:53:00,35.5,32.5,29.55,South,180,0.7,1.8,89,0.04,,,0.17,WUHU216HW,2013-02-27 21:53:00,
2013-02-27 16:58:00,35.3,32.3,29.55,SE,135,0.0,1.8,89,0.03,,,0.17,WUHU216HW,2013-02-27 21:58:00,
2013-02-27 17:03:00,35.1,32.1,29.55,SW,225,0.2,1.8,89,0.03,,,0.17,WUHU216HW,2013-02-27 22:03:00,
2013-02-27 17:08:00,35.1,32.1,29.55,SSW,203,1.1,2.7,89,0.03,,,0.17,WUHU216HW,2013-02-27 22:08:00,
2013-02-27 17:13:00,35.1,32.1,29.55,SSW,203,0.0,2.7,89,0.03,,,0.18,WUHU216HW,2013-02-27 22:13:00,
2013-02-27 17:18:00,34.9,32.0,29.55,SE,135,0.4,1.6,89,0.03,,,0.18,WUHU216HW,2013-02-27 22:18:00,
2013-02-27 17:23:00,34.9,32.0,29.56,SSW,203,0.4,1.8,89,0.03,,,0.18,WUHU216HW,2013-02-27 22:23:00,
2013-02-27 17:28:00,34.9,32.0,29.56,ESE,113,0.4,1.8,89,0.02,,,0.18,WUHU216HW,2013-02-27 22:28:00,
2013-02-27 17:33:00,34.9,32.0,29.56,SE,135,0.7,1.6,89,0.02,,,0.18,WUHU216HW,2013-02-27 22:33:00,
2013-02-27 17:38:00,34.7,31.8,29.56,SSW,203,0.0,1.8,89,0.03,,,0.19,WUHU216HW,2013-02-27 22:38:00,
2013-02-27 17:43:00,34.7,31.8,29.56,SSW,203,0.0,1.8,89,0.03,,,0.19,WUHU216HW,2013-02-27 22:43:00,
2013-02-27 17:48:00,34.6,31.6,29.56,SSW,203,1.6,1.6,89,0.02,,,0.19,WUHU216HW,2013-02-27 22:48:00,
2013-02-27 17:53:00,34.6,31.6,29.56,SSE,158,1.1,2.2,89,0.02,,,0.19,WUHU216HW,2013-02-27 22:53:00,
2013-02-27 17:58:00,34.6,31.9,29.56,SE,135,0.4,2.2,90,0.02,,,0.19,WUHU216HW,2013-02-27 22:58:00,
2013-02-27 18:03:00,34.6,31.9,29.57,ESE,113,0.2,1.3,90,0.02,,,0.19,WUHU216HW,2013-02-27 23:03:00,
2013-02-27 18:08:00,34.6,31.9,29.57,SSE,158,0.2,1.8,90,0.02,,,0.20,WUHU216HW,2013-02-27 23:08:00,
2013-02-27 18:13:00,34.4,31.7,29.57,SE,135,0.0,2.2,90,0.02,,,0.20,WUHU216HW,2013-02-27 23:13:00,
2013-02-27 18:18:00,34.4,31.7,29.57,ESE,113,0.0,2.7,90,0.02,,,0.20,WUHU216HW,2013-02-27 23:18:00,
2013-02-27 18:23:00,34.4,31.7,29.57,SW,225,0.4,2.7,90,0.02,,,0.20,WUHU216HW,2013-02-27 23:23:00,
2013-02-27 18:28:00,34.2,31.5,29.57,SE,135,1.1,2.2,90,0.02,,,0.20,WUHU216HW,2013-02-27 23:28:00,
2013-02-27 18:33:00,34.2,31.5,29.57,SE,135,1.3,2.5,90,0.01,,,0.20,WUHU216HW,2013-02-27 23:33:00,
2013-02-27 18:38:00,34.2,31.5,29.57,SSE,158,1.8,2.5,90,0.01,,,0.20,WUHU216HW,2013-02-27 23:38:00,
2013-02-27 18:43:00,34.0,31.3,29.57,SSE,158,0.9,1.8,90,0.01,,,0.20,WUHU216HW,2013-02-27 23:43:00,
2013-02-27 18:48:00,34.0,31.3,29.57,ESE,113,0.2,1.3,90,0.02,,,0.21,WUHU216HW,2013-02-27 23:48:00,
2013-02-27 18:53:00,34.0,31.3,29.58,SE,135,0.7,1.3,90,0.02,,,0.21,WUHU216HW,2013-02-27 23:53:00,
2013-02-27 18:58:00,34.0,31.3,29.58,SSE,158,0.0,1.8,90,0.02,,,0.21,WUHU216HW,2013-02-27 23:58:00,
2013-02-27 19:03:00,34.0,31.6,29.58,SE,135,1.1,2.7,91,0.02,,,0.21,WUHU216HW,2013-02-28 00:03:00,
2013-02-27 19:08:00,34.0,31.6,29.58,South,180,0.4,2.7,91,0.01,,,0.21,WUHU216HW,2013-02-28 00:08:00,
2013-02-27 19:13:00,34.0,31.6,29.58,SSW,203,1.1,2.0,91,0.01,,,0.21,WUHU216HW,2013-02-28 00:13:00,
2013-02-27 19:18:00,33.8,31.4,29.58,SW,225,0.0,2.0,91,0.01,,,0.21,WUHU216HW,2013-02-28 00:18:00,
2013-02-27 19:23:00,33.8,31.4,29.58,SE,135,1.6,1.6,91,0.01,,,0.21,WUHU216HW,2013-02-28 00:23:00,
2013-02-27 19:28:00,33.8,31.4,29.58,SE,135,0.0,1.6,91,0.01,,,0.21,WUHU216HW,2013-02-28 00:28:00,
2013-02-27 19:33:00,33.8,31.4,29.58,SSE,158,1.6,1.8,91,0.01,,,0.21,WUHU216HW,2013-02-28 00:33:00,
2013-02-27 19:38:00,33.8,31.4,29.58,SSW,203,1.1,1.8,91,0.01,,,0.21,WUHU216HW,2013-02-28 00:38:00,
2013-02-27 19:43:00,33.8,31.4,29.57,SSE,158,0.0,1.6,91,0.02,,,0.22,WUHU216HW,2013-02-28 00:43:00,
2013-02-27 19:48:00,33.8,31.4,29.57,South,180,0.4,1.8,91,0.01,,,0.22,WUHU216HW,2013-02-28 00:48:00,
2013-02-27 19:53:00,33.8,31.4,29.57,SW,225,0.4,1.8,91,0.01,,,0.22,WUHU216HW,2013-02-28 00:53:00,
2013-02-27 19:58:00,33.8,31.4,29.57,SSW,203,0.9,0.9,91,0.01,,,0.22,WUHU216HW,2013-02-28 00:58:00,
2013-02-27 20:03:00,33.8,31.4,29.57,South,180,0.2,1.1,91,0.01,,,0.22,WUHU216HW,2013-02-28 01:03:00,
2013-02-27 20:08:00,33.8,31.4,29.57,SE,135,0.0,1.1,91,0.01,,,0.22,WUHU216HW,2013-02-28 01:08:00,
2013-02-27 20:13:00,33.8,31.4,29.57,SSE,158,0.4,0.9,91,0.01,,,0.22,WUHU216HW,2013-02-28 01:13:00,
2013-02-27 20:18:00,33.8,31.4,29.57,NNE,23,0.4,0.4,91,0.01,,,0.22,WUHU216HW,2013-02-28 01:18:00,
2013-02-27 20:23:00,33.7,31.2,29.57,SE,135,0.0,0.7,91,0.01,,,0.22,WUHU216HW,2013-02-28 01:23:00,
2013-02-27 20:28:00,33.7,31.2,29.57,South,180,0.0,0.7,91,0.01,,,0.22,WUHU216HW,2013-02-28 01:28:00,
2013-02-27 20:33:00,33.7,31.2,29.57,ESE,113,0.9,0.9,91,0.01,,,0.22,WUHU216HW,2013-02-28 01:33:00,
2013-02-27 20:38:00,33.7,31.2,29.57,North,0,0.0,0.9,91,0.01,,,0.22,WUHU216HW,2013-02-28 01:38:00,
2013-02-27 20:43:00,33.7,31.2,29.57,SSW,203,0.0,0.4,91,0.00,,,0.22,WUHU216HW,2013-02-28 01:43:00,
2013-02-27 20:48:00,33.7,31.2,29.57,SE,135,0.4,0.4,91,0.01,,,0.23,WUHU216HW,2013-02-28 01:48:00,
2013-02-27 20:53:00,33.7,31.5,29.57,East,90,0.0,0.4,92,0.01,,,0.23,WUHU216HW,2013-02-28 01:53:00,
2013-02-27 20:58:00,33.7,31.2,29.57,SSW,203,0.4,0.9,91,0.01,,,0.23,WUHU216HW,2013-02-28 01:58:00,
2013-02-27 21:03:00,33.7,31.2,29.57,SSE,158,0.0,1.1,91,0.01,,,0.23,WUHU216HW,2013-02-28 02:03:00,
2013-02-27 21:08:00,33.7,31.2,29.57,SSE,158,0.0,1.1,91,0.01,,,0.23,WUHU216HW,2013-02-28 02:08:00,
2013-02-27 21:13:00,33.7,31.5,29.57,SSW,203,0.0,1.1,92,0.01,,,0.23,WUHU216HW,2013-02-28 02:13:00,
2013-02-27 21:18:00,33.7,31.5,29.57,ESE,113,1.1,1.3,92,0.01,,,0.23,WUHU216HW,2013-02-28 02:18:00,
2013-02-27 21:23:00,33.7,31.5,29.57,SSW,203,0.2,1.3,92,0.01,,,0.23,WUHU216HW,2013-02-28 02:23:00,
2013-02-27 21:29:00,33.7,31.5,29.57,SSW,203,0.0,0.9,92,0.01,,,0.23,WUHU216HW,2013-02-28 02:29:00,
2013-02-27 21:34:00,33.7,31.5,29.57,SSE,158,0.0,0.9,92,0.01,,,0.23,WUHU216HW,2013-02-28 02:34:00,
2013-02-27 21:39:00,33.7,31.5,29.57,SSE,158,0.0,0.4,92,0.01,,,0.23,WUHU216HW,2013-02-28 02:39:00,
2013-02-27 21:44:00,33.7,31.5,29.57,WSW,248,0.0,0.0,92,0.01,,,0.23,WUHU216HW,2013-02-28 02:44:00,
2013-02-27 21:49:00,33.7,31.5,29.57,NW,315,0.2,0.2,92,0.00,,,0.23,WUHU216HW,2013-02-28 02:49:00,
2013-02-27 21:54:00,33.5,31.3,29.57,WSW,248,0.0,0.4,92,0.00,,,0.23,WUHU216HW,2013-02-28 02:54:00,
2013-02-27 21:59:00,33.7,31.5,29.57,SSE,158,0.7,0.7,92,0.00,,,0.23,WUHU216HW,2013-02-28 02:59:00,
2013-02-27 22:04:00,33.7,31.5,29.57,SSE,158,0.0,0.7,92,0.00,,,0.23,WUHU216HW,2013-02-28 03:04:00,
2013-02-27 22:09:00,33.7,31.5,29.57,SSE,158,0.0,0.0,92,0.01,,,0.23,WUHU216HW,2013-02-28 03:09:00,
2013-02-27 22:14:00,33.7,31.5,29.57,SE,135,0.4,0.4,92,0.01,,,0.24,WUHU216HW,2013-02-28 03:14:00,
2013-02-27 22:19:00,33.7,31.5,29.57,SE,135,0.0,0.4,92,0.01,,,0.24,WUHU216HW,2013-02-28 03:19:00,
2013-02-27 22:24:00,33.7,31.5,29.57,SE,135,0.0,0.0,92,0.01,,,0.24,WUHU216HW,2013-02-28 03:24:00,
2013-02-27 22:29:00,33.7,31.5,29.56,SE,135,0.0,0.0,92,0.01,,,0.24,WUHU216HW,2013-02-28 03:29:00,
2013-02-27 22:34:00,33.7,31.5,29.57,ESE,113,0.2,0.2,92,0.01,,,0.24,WUHU216HW,2013-02-28 03:34:00,
2013-02-27 22:39:00,33.7,31.5,29.57,ESE,113,0.0,0.2,92,0.01,,,0.24,WUHU216HW,2013-02-28 03:39:00,
2013-02-27 22:44:00,33.7,31.5,29.57,ESE,113,0.0,0.0,92,0.01,,,0.24,WUHU216HW,2013-02-28 03:44:00,
2013-02-27 22:49:00,33.8,31.7,29.56,ESE,113,0.0,0.0,92,0.01,,,0.24,WUHU216HW,2013-02-28 03:49:00,
2013-02-27 22:54:00,33.8,31.7,29.56,ESE,113,0.0,0.0,92,0.01,,,0.24,WUHU216HW,2013-02-28 03:54:00,
2013-02-27 22:59:00,33.8,31.7,29.56,ESE,113,0.0,0.0,92,0.01,,,0.24,WUHU216HW,2013-02-28 03:59:00,
2013-02-27 23:04:00,33.8,31.7,29.56,NW,315,0.0,0.9,92,0.00,,,0.24,WUHU216HW,2013-02-28 04:04:00,
2013-02-27 23:09:00,33.8,31.7,29.56,NW,315,0.0,0.9,92,0.00,,,0.24,WUHU216HW,2013-02-28 04:09:00,
2013-02-27 23:14:00,33.8,31.7,29.56,NW,315,0.0,0.2,92,0.00,,,0.24,WUHU216HW,2013-02-28 04:14:00,
2013-02-27 23:19:00,33.8,31.7,29.56,NW,315,0.0,0.2,92,0.00,,,0.24,WUHU216HW,2013-02-28 04:19:00,
2013-02-27 23:24:00,33.8,31.7,29.56,NW,315,0.0,0.2,92,0.00,,,0.24,WUHU216HW,2013-02-28 04:24:00,
2013-02-27 23:29:00,33.7,31.5,29.56,ENE,68,0.0,0.4,92,0.00,,,0.24,WUHU216HW,2013-02-28 04:29:00,
2013-02-27 23:34:00,33.8,31.7,29.56,ENE,68,0.0,0.4,92,0.00,,,0.24,WUHU216HW,2013-02-28 04:34:00,
2013-02-27 23:39:00,33.7,31.5,29.56,ENE,68,0.0,0.2,92,0.00,,,0.24,WUHU216HW,2013-02-28 04:39:00,
2013-02-27 23:44:00,33.7,31.5,29.56,ENE,68,0.0,0.2,92,0.00,,,0.24,WUHU216HW,2013-02-28 04:44:00,
2013-02-27 23:49:00,33.7,31.5,29.55,WNW,293,0.2,0.9,92,0.00,,,0.24,WUHU216HW,2013-02-28 04:49:00,
2013-02-27 23:54:00,33.7,31.5,29.56,WSW,248,0.2,0.9,92,0.00,,,0.24,WUHU216HW,2013-02-28 04:54:00,
2013-02-27 23:59:00,33.7,31.5,29.55,WSW,248,0.0,0.4,92,0.00,,,0.24,WUHU216HW,2013-02-28 04:59:00,